Tracking 19199 objects as of 25-Jun-2018
HD Live streaming from Space Station
objects crossing your sky now

H-2A R/B

Track H-2A R/B now!
10-day predictions


NORAD ID: 43224
Int'l Code: 2018-021B
Perigee: 490.0 km
Apogee: 511.2 km
Inclination: 97.2 °
Period: 94.5 minutes
Semi major axis: 6871 km
RCS: Unknown
Launch date: February 27, 2018
Source: Japan (JPN)
Launch site: TANEGASHIMA SPACE CENTER (TNSTA)

Note: This is a ROCKET BODY
aabbcc
Your satellite tracking list
Your tracking list is empty




NASA's NSSDC Master Catalog

Two Line Element Set (TLE):
1 43224U 18021B   18173.99302780 0.00000850  00000-0  34923-4 0    06
2 43224  97.2228 291.0387 0015434 334.4419  25.5579 15.24120427    03
Source of the keplerian elements: McCants